Temp
60 60 60 60 59 59 59 59 60 60 60 60 61 61 60 60 60 61 56 66 68 70 70 75 76 75 76 71 75 75 57 55 61 64 69 78 77 86 90 84 87 89 88 90 94
60 60 60 60 59 59 59 59 59 60 60 60 60 60 60 60 54 56 70 71 71 71 72 71 69 73 66 68 69 64 56 59 69 72 71 78 78 81 82 80 81 85 89 94 93
59 59 59 59 59 59 59 59 59 59 60 60 60 60 60 59 54 62 71 71 71 70 71 71 72 70 63 67 67 66 58 67 71 75 77 76 77 83 78 75 79 80 85 89 91
58 59 59 58 59 58 58 58 59 59 60 60 59 60 60 56 50 68 72 71 71 71 71 70 68 60 58 58 67 60 69 70 71 75 75 72 78 77 79 78 85 86 86 86 87
58 58 58 58 58 58 58 58 58 58 59 59 59 60 57 54 59 76 73 73 73 71 67 65 63 62 57 62 66 63 67 72 75 75 75 77 74 75 77 84 88 89 87 83 86
57 58 57 57 57 57 57 57 57 57 58 59 59 60 55 52 77 79 74 75 74 71 73 70 63 68 61 61 60 65 67 69 72 72 75 73 74 77 79 84 85 86 82 82 83
57 57 57 57 57 57 57 57 57 57 58 60 61 62 58 58 78 79 76 69 77 78 71 73 72 65 63 57 64 65 59 65 68 69 68 73 68 71 80 82 82 84 85 85 82
57 57 57 57 57 57 57 57 57 57 59 62 62 59 54 78 75 75 77 77 79 77 75 76 73 64 59 62 61 56 56 49 60 68 71 67 57 72 78 79 79 81 84 85 83
57 57 56 57 57 57 56 56 57 59 60 63 57 55 57 74 75 78 75 75 76 77 75 82 69 60 61 52 46 50 43 48 56 67 67 65 60 71 77 77 76 79 81 83 84
57 56 56 56 56 56 55 56 59 60 64 68 68 56 65 69 75 78 79 78 72 71 69 66 59 53 50 46 37 45 47 53 53 60 62 60 62 70 74 76 76 77 79 80 81
57 56 56 56 56 55 53 57 55 52 56 58 63 64 71 77 79 75 79 74 71 65 53 60 50 45 52 56 58 57 53 51 57 63 58 56 58 63 69 70 72 76 77 78 79
56 56 56 56 55 55 50 52 64 62 52 68 68 71 76 75 66 72 78 64 61 52 58 52 46 57 62 61 58 55 51 50 56 62 59 56 55 62 65 66 69 71 75 77 75
55 55 55 55 55 51 57 66 72 68 50 62 70 69 69 71 66 67 72 65 58 53 53 47 54 63 60 56 54 53 50 50 51 57 59 55 51 56 64 67 70 72 74 75 78
55 55 55 55 52 62 63 72 71 67 41 57 63 68 71 69 62 75 76 66 57 52 54 52 59 59 56 54 55 46 56 56 54 49 40 52 38 50 57 60 65 68 71 69 70
55 55 55 54 50 59 67 69 67 60 30 62 64 74 70 63 66 69 75 66 55 55 54 50 54 53 52 54 57 49 57 53 52 46 44 46 40 47 54 55 60 64 69 72 71
55 55 54 58 53 62 71 69 61 40 32 56 66 62 60 65 66 69 68 69 66 57 58 56 64 57 53 57 57 58 50 48 46 40 33 43 42 43 49 55 60 65 69 72 75
55 55 52 61 57 71 69 59 38 33 61 55 56 60 57 57 61 63 59 54 48 44 42 52 53 58 57 48 53 47 38 24 25 26 28 46 42 44 55 60 62 62 66 71 73
53 52 57 65 68 68 61 47 33 52 53 60 58 57 53 60 59 60 56 49 58 50 41 36 35 50 57 49 43 45 38 28 22 26 31 45 36 44 56 61 64 65 66 69 72
52 58 58 63 67 63 50 35 38 52 58 54 55 51 52 56 55 54 51 51 54 51 37 35 37 53 55 58 53 45 36 44 35 39 31 37 44 53 58 57 56 55 55 58 66
48 55 60 69 67 56 44 42 49 60 59 57 45 52 44 48 48 48 48 56 53 56 51 44 34 50 54 56 54 46 49 33 33 26 23 35 38 39 45 46 49 49 51 54 55
49 51 62 68 63 50 37 45 55 62 61 53 49 47 48 46 48 46 48 53 56 53 52 45 38 40 48 43 40 39 40 36 39 32 25 24 31 46 44 46 46 48 54 53 54
51 47 64 64 45 47 45 54 57 59 61 57 55 52 47 49 46 46 46 51 59 54 44 44 37 32 39 50 53 48 40 38 29 28 33 31 30 48 46 50 49 48 53 54 55
47 52 63 61 39 41 51 55 57 58 56 54 51 53 52 46 39 48 48 57 56 51 45 42 34 28 34 41 44 41 47 45 40 35 31 29 34 53 50 50 50 46 49 52 55
49 44 53 54 53 46 45 48 51 61 59 59 54 54 49 47 49 45 47 54 58 54 57 49 36 32 27 35 40 37 43 48 41 30 35 38 39 46 45 48 50 49 50 50 53
51 46 48 40 43 45 48 49 49 51 57 54 49 50 47 40 43 41 47 50 55 55 48 45 33 39 41 44 45 44 44 47 44 45 38 39 43 45 47 48 50 51 50 51 55
43 42 46 42 47 46 47 47 49 51 50 47 44 50 48 40 43 41 46 44 40 48 42 43 34 38 37 44 46 42 46 48 47 46 44 40 44 52 54 52 52 54 54 55 62
50 51 45 42 43 43 43 46 48 50 52 54 50 46 44 47 52 52 51 50 47 44 44 42 37 32 30 41 41 33 39 41 43 45 44 36 42 50 51 51 50 55 58 58 63
MSLP
1019.96 1019.55 1019.14 1018.76 1018.38 1017.98 1017.58 1017.20 1016.87 1016.50 1016.09 1015.69 1015.32 1015.10 1014.71 1014.28 1013.89 1013.13 1012.37 1011.11 1010.85 1010.74 1010.59 1010.05 1009.62 1009.46 1009.16 1008.98 1008.86 1008.82 1008.63 1007.98 1007.08 1006.17 1004.39 1003.15 1002.34 1000.92 1000.15 999.77 999.17 999.15 999.45 999.34 998.78
1019.88 1019.46 1019.02 1018.58 1018.20 1017.86 1017.48 1017.06 1016.66 1016.27 1015.90 1015.53 1015.21 1014.95 1014.67 1014.35 1013.85 1012.36 1010.83 1010.45 1010.35 1010.40 1010.11 1009.54 1009.36 1009.06 1008.93 1008.53 1008.64 1008.41 1007.71 1007.15 1006.52 1005.42 1004.25 1003.43 1002.69 1001.52 1000.89 1000.27 999.72 999.30 999.47 999.34 999.93
1019.77 1019.27 1018.81 1018.40 1017.94 1017.50 1017.13 1016.79 1016.40 1015.97 1015.58 1015.25 1014.92 1014.68 1014.45 1014.30 1013.15 1010.72 1010.22 1010.20 1010.08 1010.06 1010.02 1009.78 1009.47 1009.10 1008.76 1008.59 1008.14 1007.67 1006.86 1006.87 1005.79 1005.43 1004.52 1003.57 1002.81 1001.86 1001.51 1000.77 1000.14 1000.02 1000.17 999.80 999.76
1019.74 1019.18 1018.69 1018.22 1017.71 1017.26 1016.89 1016.51 1016.11 1015.66 1015.26 1015.01 1014.74 1014.36 1014.02 1013.98 1012.06 1009.85 1009.60 1009.46 1009.42 1009.79 1009.98 1009.45 1009.21 1009.27 1008.81 1008.54 1007.84 1007.37 1006.78 1006.49 1005.84 1005.46 1004.38 1003.52 1002.84 1001.96 1001.40 1001.21 1000.19 999.76 1000.00 1000.19 1000.86
1019.70 1019.17 1018.59 1018.05 1017.57 1017.04 1016.58 1016.17 1015.79 1015.44 1015.07 1014.79 1014.63 1014.32 1013.69 1012.70 1010.27 1009.00 1009.11 1009.00 1009.36 1009.69 1009.44 1009.06 1008.66 1008.49 1008.31 1007.88 1007.66 1006.91 1006.42 1005.79 1005.04 1004.51 1003.89 1003.28 1002.47 1002.38 1001.20 1000.95 1000.50 999.89 1000.02 1000.13 1000.28
1019.56 1019.03 1018.46 1017.86 1017.30 1016.79 1016.32 1015.83 1015.40 1015.03 1014.72 1014.48 1014.38 1014.15 1013.67 1011.30 1008.02 1008.32 1008.50 1008.45 1008.73 1008.73 1008.54 1008.33 1008.31 1008.09 1007.84 1007.60 1007.55 1006.87 1006.22 1005.38 1004.66 1004.08 1003.49 1003.18 1002.47 1002.20 1000.83 1000.84 1000.58 1000.02 1000.17 1000.16 1000.41
1019.43 1018.88 1018.28 1017.61 1016.97 1016.43 1015.92 1015.39 1014.90 1014.59 1014.40 1014.02 1013.96 1013.86 1012.67 1010.10 1007.95 1007.75 1007.95 1007.79 1007.66 1007.87 1008.10 1007.98 1007.83 1008.26 1008.23 1008.21 1007.40 1007.03 1006.19 1005.09 1004.51 1003.90 1003.20 1003.25 1002.13 1001.31 1001.09 1000.83 1000.44 1000.04 999.75 999.76 1000.33
1019.19 1018.57 1017.99 1017.40 1016.77 1016.11 1015.55 1015.04 1014.63 1014.05 1013.86 1013.73 1013.75 1013.53 1011.19 1008.19 1007.82 1007.90 1007.76 1007.56 1007.25 1007.32 1007.54 1007.52 1007.76 1008.40 1008.60 1008.38 1007.83 1007.68 1006.73 1005.88 1004.59 1004.04 1003.48 1003.99 1001.74 1001.22 1000.96 1000.55 1000.18 999.96 999.54 998.97 999.71
1019.06 1018.37 1017.72 1017.08 1016.43 1015.77 1015.19 1014.56 1013.85 1013.39 1013.42 1013.37 1013.45 1012.93 1010.02 1007.95 1007.96 1007.75 1007.77 1007.59 1007.56 1007.47 1007.30 1007.18 1007.53 1008.23 1008.56 1008.73 1008.76 1007.95 1007.10 1006.05 1004.78 1004.48 1004.01 1003.59 1001.76 1000.87 1000.80 1000.45 999.91 999.55 999.60 999.21 998.60
1018.86 1018.16 1017.45 1016.74 1016.02 1015.43 1014.79 1013.61 1012.81 1012.95 1012.48 1012.59 1012.23 1012.04 1009.38 1007.86 1007.61 1007.64 1007.29 1007.28 1007.48 1007.38 1007.22 1007.06 1007.57 1008.07 1008.33 1008.77 1008.55 1007.89 1007.03 1006.06 1004.98 1004.51 1004.11 1003.55 1002.05 1001.02 1000.55 1000.16 999.67 999.45 999.05 998.86 998.72
1018.51 1017.78 1017.06 1016.36 1015.62 1015.20 1014.64 1013.24 1013.03 1013.03 1012.23 1011.12 1010.13 1009.43 1008.00 1007.64 1007.46 1007.41 1007.04 1007.30 1007.35 1007.40 1007.65 1007.35 1007.78 1008.09 1007.77 1007.41 1007.19 1006.87 1006.40 1005.90 1005.13 1004.80 1004.63 1004.16 1002.86 1001.53 1001.27 1000.64 999.94 998.93 998.60 998.49 998.34
1018.27 1017.45 1016.63 1015.83 1015.15 1014.84 1014.99 1013.74 1011.74 1011.50 1010.52 1009.69 1009.06 1008.17 1007.74 1007.64 1007.62 1007.07 1006.85 1007.47 1007.77 1007.97 1007.80 1007.85 1007.56 1007.26 1007.01 1006.76 1006.76 1006.65 1006.23 1005.71 1005.20 1005.20 1004.88 1004.41 1003.12 1001.99 1001.54 1000.98 1000.41 999.68 998.58 997.86 997.90
1018.04 1017.16 1016.35 1015.35 1014.64 1014.21 1013.36 1011.70 1010.63 1010.76 1010.80 1008.51 1007.50 1007.21 1007.18 1007.33 1007.11 1007.05 1006.96 1007.46 1007.84 1008.17 1008.22 1008.27 1007.85 1007.24 1006.96 1006.85 1006.87 1006.69 1006.55 1006.14 1005.76 1005.44 1005.03 1004.70 1003.71 1002.32 1001.03 1000.59 1000.01 999.17 998.52 997.77 997.10
1017.72 1016.82 1016.12 1015.17 1014.53 1013.01 1012.18 1010.95 1010.73 1010.98 1010.71 1008.17 1007.28 1006.83 1006.77 1006.83 1006.71 1006.45 1006.58 1007.50 1008.00 1008.22 1008.29 1008.07 1007.34 1007.01 1006.77 1006.96 1007.01 1006.92 1007.12 1006.66 1006.32 1006.18 1005.90 1005.46 1003.31 1003.33 1001.88 1000.37 1000.14 999.18 998.54 997.70 997.15
1017.42 1016.53 1015.69 1015.79 1014.96 1013.06 1011.34 1010.79 1010.82 1011.21 1009.98 1007.41 1006.79 1006.60 1006.45 1006.81 1006.37 1005.80 1006.48 1006.99 1007.53 1007.78 1008.14 1007.83 1007.14 1006.80 1006.93 1007.13 1007.49 1007.50 1007.68 1007.52 1007.26 1007.12 1006.55 1006.02 1005.13 1002.86 1002.50 1000.75 1000.06 999.26 998.61 997.70 996.66
1017.04 1016.23 1015.69 1014.39 1014.52 1012.22 1011.08 1010.85 1011.06 1011.47 1008.98 1007.17 1006.54 1006.38 1006.55 1006.30 1006.00 1005.86 1006.05 1006.29 1006.53 1007.08 1007.22 1006.99 1006.68 1006.97 1007.35 1007.56 1007.97 1008.03 1008.45 1008.18 1007.93 1008.06 1007.48 1006.44 1005.99 1003.15 1002.69 1001.48 1000.20 999.31 998.40 997.41 996.58
1016.55 1015.55 1015.47 1014.67 1013.28 1011.74 1011.36 1011.25 1011.46 1010.27 1007.82 1007.65 1007.16 1006.93 1006.98 1006.52 1006.07 1005.87 1006.18 1006.66 1006.88 1006.97 1007.32 1007.25 1007.18 1007.23 1007.71 1008.10 1008.24 1008.76 1009.33 1009.83 1009.76 1009.04 1007.61 1006.44 1005.61 1003.66 1001.70 1001.10 1000.31 999.55 998.56 997.37 996.50
1016.17 1014.86 1014.02 1013.59 1012.58 1012.04 1012.10 1012.05 1011.24 1009.27 1008.74 1008.39 1008.10 1007.74 1007.11 1006.14 1006.27 1006.24 1006.42 1006.78 1007.17 1007.85 1008.45 1008.53 1008.29 1008.53 1008.57 1008.50 1008.64 1008.85 1010.23 1011.21 1010.29 1009.44 1007.97 1006.73 1005.35 1002.67 1001.65 1000.84 1000.05 999.84 999.00 997.72 996.70
1015.98 1014.15 1013.61 1012.75 1012.54 1012.46 1013.05 1012.46 1011.12 1009.70 1009.26 1009.13 1008.90 1008.21 1007.49 1007.31 1007.61 1007.32 1007.22 1007.35 1008.08 1008.71 1009.92 1010.06 1009.24 1009.15 1008.54 1008.12 1008.56 1008.61 1009.25 1009.39 1010.06 1009.04 1008.59 1006.62 1004.46 1002.71 1001.17 1001.43 1001.37 1001.07 1000.28 999.27 997.48
1016.65 1014.53 1013.01 1012.17 1012.25 1012.74 1013.27 1012.49 1010.95 1010.19 1009.84 1009.84 1009.78 1009.30 1009.39 1009.18 1008.95 1008.60 1008.31 1008.13 1008.79 1009.30 1009.85 1010.44 1009.55 1009.19 1008.51 1008.25 1007.95 1008.55 1008.95 1009.47 1009.75 1009.78 1008.59 1006.51 1005.19 1004.09 1003.40 1002.95 1002.42 1001.97 1001.57 1000.30 998.27
1016.20 1014.33 1012.84 1012.13 1012.37 1013.12 1013.34 1012.22 1010.96 1010.33 1010.02 1010.25 1010.26 1010.28 1010.31 1010.18 1010.02 1009.78 1009.41 1009.22 1009.19 1009.60 1010.04 1010.55 1010.78 1009.79 1009.46 1008.57 1008.47 1008.87 1009.16 1010.21 1010.64 1010.33 1008.93 1007.46 1006.24 1004.91 1004.62 1004.24 1003.41 1002.45 1001.93 1001.24 999.24
1015.89 1014.15 1012.51 1012.28 1013.14 1012.96 1012.83 1012.05 1011.02 1010.22 1009.99 1010.14 1010.04 1010.37 1010.70 1010.70 1010.64 1010.34 1009.88 1009.71 1009.67 1010.12 1010.69 1011.37 1011.39 1010.57 1009.52 1008.13 1008.02 1008.37 1008.99 1009.68 1010.52 1009.58 1009.22 1008.73 1006.67 1005.20 1004.30 1003.95 1003.95 1002.64 1002.46 1001.01 998.37
1017.15 1014.27 1012.40 1012.46 1013.23 1013.37 1012.77 1012.08 1011.27 1010.19 1010.12 1010.44 1010.72 1010.92 1010.92 1011.01 1010.87 1010.10 1009.94 1009.68 1009.69 1010.29 1010.83 1011.47 1011.68 1011.37 1009.47 1008.06 1008.21 1008.03 1008.02 1008.42 1008.84 1008.75 1008.15 1007.60 1005.71 1003.72 1003.57 1003.26 1003.36 1002.89 1002.64 1000.99 999.00
1017.61 1015.27 1013.70 1013.47 1013.66 1013.96 1013.60 1012.66 1011.49 1010.44 1009.93 1010.03 1010.47 1010.62 1010.88 1010.86 1010.59 1010.26 1010.00 1009.66 1009.56 1009.84 1010.36 1011.06 1011.53 1011.73 1010.92 1009.50 1008.64 1007.80 1007.37 1007.19 1007.53 1007.62 1006.90 1005.93 1004.98 1003.59 1003.32 1003.14 1002.70 1003.23 1002.47 1001.41 999.99
1018.12 1017.01 1016.65 1015.51 1015.04 1015.07 1014.28 1013.08 1011.85 1010.89 1010.75 1010.85 1011.15 1011.25 1011.37 1011.25 1011.01 1010.67 1010.17 1009.62 1009.34 1009.45 1010.18 1011.13 1011.52 1011.21 1010.48 1009.24 1008.12 1006.93 1006.50 1006.17 1006.07 1006.00 1005.95 1005.66 1004.18 1004.19 1002.94 1002.61 1002.83 1003.01 1002.20 1001.64 1000.15
1019.38 1018.94 1018.15 1017.38 1016.22 1015.50 1014.39 1013.26 1012.40 1011.65 1011.62 1011.44 1011.68 1011.53 1011.50 1011.49 1011.19 1010.55 1010.36 1010.12 1009.69 1009.60 1010.01 1010.83 1011.26 1011.07 1009.89 1008.71 1007.27 1006.20 1006.11 1005.82 1005.53 1005.38 1004.92 1004.84 1004.08 1002.90 1001.60 1001.99 1001.90 1002.39 1001.93 1000.17 999.27
1020.30 1019.64 1019.23 1018.16 1016.98 1015.95 1014.88 1014.34 1013.45 1012.76 1011.92 1011.69 1011.64 1011.71 1011.59 1011.20 1010.65 1010.20 1009.93 1009.54 1009.38 1009.50 1009.80 1010.37 1010.77 1011.03 1009.84 1008.75 1007.43 1006.51 1006.67 1006.24 1006.21 1006.07 1005.82 1005.60 1005.13 1003.96 1002.85 1002.16 1002.31 1001.56 1001.03 1000.00 997.98
Wind_Speed
18 18 17 17 17 17 17 17 17 17 17 17 17 17 17 17 17 8 6 4 5 5 8 7 7 9 8 6 7 6 5 12 19 18 17 13 14 15 8 8 9 3 5 4 8
19 19 19 18 18 17 17 17 17 17 17 17 17 16 15 14 7 9 6 6 6 3 4 5 7 8 4 4 6 7 8 18 14 15 17 16 13 15 10 8 8 7 4 6 11
19 20 20 19 19 18 18 18 18 18 18 17 17 16 14 10 5 1 11 10 8 3 4 6 11 10 6 9 11 9 18 14 16 17 20 22 21 17 17 10 10 7 6 6 9
19 20 20 20 20 19 18 19 19 19 19 18 17 16 15 4 4 4 13 14 10 4 6 6 8 6 4 8 7 16 16 18 20 20 24 24 21 22 16 15 13 9 7 5 10
19 20 20 20 20 20 19 19 19 20 20 19 16 14 9 4 7 9 16 15 6 6 8 8 7 6 10 7 14 18 17 17 19 18 20 23 25 22 22 17 19 12 8 9 13
19 19 20 21 21 20 19 18 18 19 20 19 14 12 4 5 2 13 13 12 14 8 5 7 4 9 5 7 8 8 14 16 17 18 19 21 24 19 23 16 20 18 10 6 9
19 19 22 22 22 22 20 19 18 19 18 18 10 5 5 13 3 5 7 3 4 5 3 6 8 8 9 9 8 13 12 15 16 14 13 8 19 29 21 14 16 20 20 15 8
22 21 22 23 23 23 23 20 20 21 18 12 5 4 8 4 3 7 7 10 2 3 4 8 7 4 5 8 9 7 8 7 1 10 15 7 27 22 11 18 21 15 18 21 13
23 24 23 25 25 24 22 22 24 21 13 9 4 4 8 3 3 5 5 5 5 5 7 9 4 6 6 5 5 6 8 12 16 12 13 11 26 24 16 14 16 20 18 18 21
22 22 25 25 25 23 21 25 15 7 6 7 7 5 8 7 5 5 10 2 6 7 8 7 5 6 4 4 5 8 9 9 12 6 7 13 20 16 16 20 21 17 15 16 18
24 23 23 25 23 19 11 6 3 1 4 8 7 10 14 5 4 4 2 2 7 7 5 6 5 6 11 9 10 11 12 12 14 11 13 13 19 20 15 16 17 22 20 16 17
26 25 25 24 22 16 4 4 7 6 8 13 15 14 6 2 4 10 2 2 6 7 9 7 5 8 13 13 13 12 13 12 10 10 14 13 20 19 17 17 17 18 19 20 13
24 25 25 25 22 6 5 5 6 7 3 11 10 4 6 1 7 8 2 3 5 7 8 6 10 14 13 11 14 14 14 13 15 11 14 9 17 22 21 16 17 19 15 16 22
25 26 24 25 5 4 3 5 7 6 2 6 6 3 3 5 7 13 3 4 3 7 9 6 10 13 10 10 11 10 13 17 17 12 10 4 18 12 17 22 15 17 17 12 9
25 25 25 12 8 6 3 5 4 3 3 5 7 7 4 5 5 8 8 7 9 12 7 12 13 8 8 6 11 13 12 16 16 15 13 12 12 14 9 18 18 16 18 20 13
26 25 21 2 3 10 8 7 3 2 2 6 6 2 3 5 9 2 6 6 10 12 11 15 12 3 3 7 8 13 12 9 8 3 11 14 11 20 14 19 20 21 19 21 22
29 27 13 5 5 10 7 5 2 3 3 8 7 12 10 14 9 6 1 6 8 6 4 7 6 6 6 5 5 8 9 5 5 3 5 10 11 17 20 20 19 19 20 22 20
32 28 4 6 9 7 5 3 2 8 12 12 11 13 15 7 4 6 3 6 9 10 5 5 6 10 7 3 6 5 5 5 6 10 15 13 10 15 11 16 16 14 20 18 20
28 3 2 4 7 5 4 2 3 9 10 12 13 10 8 17 12 9 7 5 7 6 4 4 5 10 16 16 10 11 5 11 11 15 8 11 18 17 20 5 16 20 23 27 27
7 4 3 4 5 3 2 4 5 12 11 9 7 7 11 12 9 11 8 8 6 10 2 4 14 7 10 13 9 3 7 8 5 6 6 5 12 6 14 17 18 21 24 26 32
2 2 2 3 3 1 1 4 11 13 8 4 9 9 9 9 10 11 7 14 10 10 8 6 1 7 10 5 2 4 3 2 5 7 3 6 3 2 9 11 16 17 26 23 24
4 1 4 1 1 2 2 9 13 14 5 8 7 4 5 8 7 10 7 8 9 8 5 5 4 6 16 20 5 4 5 4 3 6 3 4 8 3 6 10 14 15 21 21 23
6 4 2 3 1 3 7 11 17 8 1 3 5 10 6 7 8 2 8 9 5 4 1 1 3 6 11 4 2 2 5 7 6 4 7 8 7 2 3 11 10 12 14 14 23
4 4 3 2 4 6 8 8 11 13 8 6 6 6 8 9 7 5 9 6 5 6 4 5 4 9 9 13 14 19 20 17 6 4 10 12 10 26 6 5 7 13 14 17 20
4 4 3 5 5 9 10 10 15 12 9 11 9 12 11 7 7 7 11 13 10 3 3 3 5 9 15 20 23 24 22 20 18 11 12 17 23 5 5 7 3 3 13 17 26
4 4 6 6 8 8 11 6 10 14 11 7 7 11 9 9 11 15 15 8 5 5 3 7 5 9 19 19 17 20 18 17 16 11 6 16 12 12 5 6 3 5 15 21 22
4 4 3 6 6 7 5 13 14 12 7 6 7 13 13 15 16 14 11 14 12 12 14 9 3 1 8 12 18 6 8 10 10 10 12 3 11 16 12 1 8 13 14 20 17
Wind_Direction
347 343 341 339 336 334 332 329 327 323 320 319 319 316 321 322 318 299 239 215 206 295 304 272 270 264 277 228 252 283 237 247 244 250 267 276 286 298 280 296 293 348 89 338 119
346 343 340 338 336 333 331 326 323 320 319 319 318 320 323 326 295 262 234 185 227 280 303 290 284 245 227 242 218 200 229 235 248 258 270 286 299 298 331 334 318 319 110 95 90
344 341 339 336 334 332 329 324 320 317 316 318 318 320 319 323 274 99 188 222 232 230 262 280 282 288 255 229 236 235 236 255 259 261 270 280 291 314 316 303 278 286 347 184 176
344 341 338 335 332 329 325 321 317 314 313 315 318 320 311 261 43 160 198 226 225 209 265 245 236 244 230 245 243 248 249 237 248 262 275 276 292 290 295 289 275 287 309 308 308
341 338 334 332 328 325 322 318 314 312 311 312 316 321 330 231 240 181 200 222 223 214 230 239 248 251 234 233 235 254 262 259 253 254 258 272 272 275 278 284 290 296 297 315 321
339 336 333 329 325 322 317 312 310 310 310 311 313 312 225 274 25 172 206 224 214 184 319 313 318 314 286 298 286 292 285 273 262 251 249 251 269 276 266 264 271 280 287 297 302
338 334 334 330 325 321 316 312 310 309 309 312 312 290 261 250 252 251 242 266 268 172 250 311 352 7 340 325 298 325 306 297 277 275 271 294 271 248 262 268 256 259 267 269 268
338 333 332 329 324 319 314 311 305 301 305 315 293 286 260 223 342 294 359 300 333 341 297 276 185 259 275 271 299 299 291 291 265 267 273 243 268 264 272 252 260 255 245 266 243
337 333 330 327 323 318 313 307 294 288 282 278 252 208 276 156 212 26 302 302 337 290 295 276 180 195 273 263 301 260 270 278 281 267 272 236 254 260 258 259 259 254 255 246 263
333 329 330 326 322 319 317 294 281 317 237 231 246 281 271 257 70 306 269 323 286 271 283 233 220 204 256 199 231 243 251 260 264 277 283 277 271 278 256 246 249 254 241 235 236
333 329 326 326 320 322 335 339 331 4 234 243 262 234 299 33 352 275 308 314 282 316 276 313 339 269 258 263 265 285 294 290 300 333 327 299 292 295 301 301 280 246 245 251 239
331 329 328 325 321 317 288 261 26 265 305 274 273 268 279 256 271 294 356 343 333 307 316 336 292 311 324 325 323 316 286 281 299 310 293 304 296 295 294 289 293 287 258 235 233
330 329 330 326 321 298 226 318 301 30 307 299 201 233 219 230 259 275 93 310 330 332 325 323 302 314 313 309 312 305 304 301 285 286 275 291 282 292 292 280 285 288 274 260 237
331 329 332 330 320 284 224 347 17 51 306 199 168 143 215 220 243 230 177 102 285 294 288 271 270 285 311 328 316 319 334 317 305 299 276 251 282 268 290 291 290 287 290 270 261
329 328 329 323 301 306 309 12 37 55 25 190 123 165 199 210 261 303 155 177 237 255 267 261 277 276 287 309 353 308 333 311 312 310 315 288 281 286 290 285 290 286 283 292 257
326 325 334 65 202 255 335 326 6 345 278 143 156 233 254 286 298 189 225 200 235 245 242 248 260 59 48 359 325 311 350 323 309 305 269 282 263 275 267 274 281 283 289 282 288
325 319 318 289 258 327 348 324 7 219 193 36 3 3 326 284 278 264 130 282 268 300 318 335 347 347 58 18 314 26 8 332 337 315 264 279 283 283 281 265 272 289 288 285 280
325 314 234 243 290 336 348 342 257 329 23 7 359 316 281 317 221 354 253 284 46 41 8 359 340 19 7 208 234 278 139 246 250 281 284 290 266 259 271 283 274 293 288 285 278
320 297 245 245 254 36 31 349 268 347 16 355 339 314 341 360 353 339 339 340 57 67 69 328 256 323 303 304 307 297 228 241 262 287 296 273 261 278 267 317 11 348 344 336 318
316 284 281 122 87 28 48 280 297 37 8 351 306 349 349 332 334 353 351 20 31 23 129 224 292 288 314 312 291 329 339 329 310 279 248 268 293 312 15 355 353 354 345 324 328
229 256 184 275 87 359 151 260 303 342 335 351 319 300 319 319 345 337 327 318 24 0 349 352 307 299 308 271 31 338 293 351 308 244 248 308 275 49 41 13 344 347 340 322 315
305 345 208 168 40 242 281 332 318 306 7 306 309 348 315 332 305 292 314 320 5 14 12 43 285 285 291 287 195 209 156 153 213 305 220 257 272 144 86 38 340 346 325 313 329
313 273 255 112 342 315 291 340 310 334 47 299 282 297 296 285 291 306 290 286 57 336 87 250 294 316 311 317 14 302 236 231 268 259 243 266 270 175 148 45 341 342 313 331 305
292 335 349 316 357 24 349 311 316 304 284 286 266 291 317 296 288 299 329 317 297 259 331 329 226 213 246 265 280 282 284 288 226 221 276 272 290 283 70 63 0 355 332 324 322
343 347 17 316 338 316 290 284 293 321 10 14 342 330 312 307 311 297 300 298 292 338 144 92 266 258 271 277 281 282 287 293 296 277 278 292 273 316 224 146 127 71 328 282 278
6 0 342 294 298 291 280 318 342 333 346 330 293 294 333 321 304 302 324 319 269 292 226 179 258 305 286 285 284 269 270 277 296 330 333 2 312 355 323 126 163 236 256 273 274
339 339 318 282 290 309 329 336 312 305 308 293 309 313 306 291 291 299 295 283 259 270 270 259 215 301 270 304 308 302 22 351 336 325 326 351 320 345 6 4 264 263 272 289 329